Tillbaka till svenska Fidonet
English   Information   Debug  
FILM   0/18
FNEWS_PUBLISH   4926
FN_SYSOP   42201
FN_SYSOP_OLD1   71952
FTP_FIDO   0/2
FTSC_PUBLIC   0/13973
FUNNY   0/4886
GENEALOGY.EUR   0/71
GET_INFO   105
GOLDED   0/408
HAM   0/16661
HOLYSMOKE   0/6791
HOT_SITES   0/1
HTMLEDIT   0/71
HUB203   466
HUB_100   264
HUB_400   39
HUMOR   0/29
IC   2504/2851
INTERNET   0/424
INTERUSER   0/3
IP_CONNECT   719
JAMNNTPD   0/233
JAMTLAND   0/47
KATTY_KORNER   0/41
LAN   0/16
LINUX-USER   0/19
LINUXHELP   0/1155
LINUX   0/22300
LINUX_BBS   0/957
mail   18.68
mail_fore_ok   249
MENSA   0/341
MODERATOR   0/102
MONTE   0/992
MOSCOW_OKLAHOMA   0/1245
MUFFIN   0/783
MUSIC   0/321
N203_STAT   938
N203_SYSCHAT   313
NET203   321
NET204   69
NET_DEV   0/10
NORD.ADMIN   0/101
NORD.CHAT   0/2572
NORD.FIDONET   189
NORD.HARDWARE   0/28
NORD.KULTUR   0/114
NORD.PROG   0/32
NORD.SOFTWARE   0/88
NORD.TEKNIK   0/58
NORD   0/453
OCCULT_CHAT   0/93
OS2BBS   0/787
OS2DOSBBS   0/580
OS2HW   0/42
OS2INET   0/37
OS2LAN   0/134
OS2PROG   0/36
OS2REXX   0/113
OS2USER-L   207
OS2   0/4830
OSDEBATE   0/18996
PASCAL   0/490
PERL   0/457
PHP   0/45
POINTS   0/405
POLITICS   0/29554
POL_INC   11493/14731
PSION   103
R20_ADMIN   1133
R20_AMATORRADIO   0/2
R20_BEST_OF_FIDONET   16
R20_CHAT   0/896
R20_DEPP   0/3
R20_DEV   400
R20_ECHO2   1832
R20_ECHOPRES   0/35
R20_ESTAT   0/719
R20_FIDONETPROG...
...RAM.MYPOINT
  0/2
R20_FIDONETPROGRAM   0/22
R20_FIDONET   0/248
R20_FILEFIND   0/24
R20_FILEFOUND   0/22
R20_HIFI   0/3
R20_INFO2   3725
R20_INTERNET   0/12940
R20_INTRESSE   0/60
R20_INTR_KOM   0/99
R20_KANDIDAT.CHAT   42
R20_KANDIDAT   28
R20_KOM_DEV   112
R20_KONTROLL   0/13360
R20_KORSET   0/18
R20_LOKALTRAFIK   0/24
R20_MODERATOR   0/1852
R20_NC   76
R20_NET200   245
R20_NETWORK.OTH...
...ERNETS
  0/13
R20_OPERATIVSYS...
...TEM.LINUX
  0/44
R20_PROGRAMVAROR   0/1
R20_REC2NEC   534
R20_SFOSM   0/341
R20_SF   0/108
R20_SPRAK.ENGLISH   0/1
R20_SQUISH   107
R20_TEST   2
R20_WORST_OF_FIDONET   20
RAR   0/9
RA_MULTI   106
RA_UTIL   0/162
REGCON.EUR   0/2068
REGCON   0/13
SCIENCE   0/1206
SF   0/239
SHAREWARE_SUPPORT   0/5146
SHAREWRE   0/14
SIMPSONS   0/169
STATS_OLD1   0/2539.065
STATS_OLD2   0/2530
STATS_OLD3   0/2395.095
STATS_OLD4   0/1692.25
SURVIVOR   0/495
SYSOPS_CORNER   0/3
SYSOP   0/84
TAGLINES   0/112
TEAMOS2   0/4530
TECH   0/2617
TEST.444   0/105
TRAPDOOR   0/19
TREK   0/755
TUB   0/290
UFO   0/40
UNIX   0/1316
USA_EURLINK   0/102
USR_MODEMS   0/1
VATICAN   0/2740
VIETNAM_VETS   0/14
VIRUS   0/378
VIRUS_INFO   0/201
VISUAL_BASIC   0/473
WHITEHOUSE   0/5187
WIN2000   0/101
WIN32   0/30
WIN95   0/4291
WIN95_OLD1   0/70272
WINDOWS   0/1517
WWB_SYSOP   0/419
WWB_TECH   0/810
ZCC-PUBLIC   0/1
ZEC   4

 
4DOS   0/134
ABORTION   0/7
ALASKA_CHAT   0/506
ALLFIX_FILE   0/1313
ALLFIX_FILE_OLD1   0/7997
ALT_DOS   0/152
AMATEUR_RADIO   0/1039
AMIGASALE   0/14
AMIGA   0/331
AMIGA_INT   0/1
AMIGA_PROG   0/20
AMIGA_SYSOP   0/26
ANIME   0/15
ARGUS   0/924
ASCII_ART   0/340
ASIAN_LINK   0/651
ASTRONOMY   0/417
AUDIO   0/92
AUTOMOBILE_RACING   0/105
BABYLON5   0/17862
BAG   135
BATPOWER   0/361
BBBS.ENGLISH   0/382
BBSLAW   0/109
BBS_ADS   0/5290
BBS_INTERNET   0/507
BIBLE   0/3563
BINKD   0/1119
BINKLEY   0/215
BLUEWAVE   0/2173
CABLE_MODEMS   0/25
CBM   0/46
CDRECORD   0/66
CDROM   0/20
CLASSIC_COMPUTER   0/378
COMICS   0/15
CONSPRCY   0/899
COOKING   41467
COOKING_OLD1   0/24719
COOKING_OLD2   0/40862
COOKING_OLD3   0/37489
COOKING_OLD4   0/35496
COOKING_OLD5   9370
C_ECHO   0/189
C_PLUSPLUS   0/31
DIRTY_DOZEN   0/201
DOORGAMES   0/2291
DOS_INTERNET   0/196
duplikat   6102
ECHOLIST   0/18295
EC_SUPPORT   0/318
ELECTRONICS   0/359
ELEKTRONIK.GER   1534
ENET.LINGUISTIC   0/13
ENET.POLITICS   0/4
ENET.SOFT   0/11701
ENET.SYSOP   34296
ENET.TALKS   0/32
ENGLISH_TUTOR   0/2000
EVOLUTION   0/1335
FDECHO   0/217
FDN_ANNOUNCE   0/7068
FIDONEWS   25062
FIDONEWS_OLD1   0/49742
FIDONEWS_OLD2   0/35949
FIDONEWS_OLD3   6447/30874
FIDONEWS_OLD4   0/37224
FIDO_SYSOP   12922
FIDO_UTIL   0/180
FILEFIND   0/209
FILEGATE   0/212
Möte HAM, 16661 texter
 lista första sista föregående nästa
Text 2627, 745 rader
Skriven 2008-11-20 19:30:18 av Amsat List (1:323/120.0)
Ärende: [keps]  orb325.amsa
===========================
[keps]  orb325.amsa

Return-Path: <keps-bounces@amsat.org>
X-Rcpt: craig.healy@chowda.com
X-UIDL: 1227227362.4560

SB KEPS @ AMSAT  $ORB08325.O
Orbital Elements  08325.OSCAR

HR AMSAT ORBITAL ELEMENTS FOR OSCAR SATELLITES
FROM WA5QGD FORT WORTH,TX November 20, 2008
Send Subscribe/unsubscribe to KEPS at 
http://www.amsat.org/mailman/listinfo/keps
BID: ORB08325.O
TO ALL RADIO AMATEURS BT

Satellite: AO-07
Catalog number: 07530
Epoch time:      08325.63441899
Element set:     332
Inclination:      101.4505 deg
RA of node:       351.8051 deg
Eccentricity:    0.0011762
Arg of perigee:   317.0379 deg
Mean anomaly:     042.9771 deg
Mean motion:   12.53574708 rev/day
Decay rate:       -2.7e-07 rev/day^2
Epoch rev:           55658
Checksum:              300

Satellite: AO-10
Catalog number: 14129
Epoch time:      08324.53625017
Element set:     590
Inclination:      026.0377 deg
RA of node:       185.1553 deg
Eccentricity:    0.5958519
Arg of perigee:   174.7238 deg
Mean anomaly:     196.7054 deg
Mean motion:   02.05868745 rev/day
Decay rate:       -7.2e-07 rev/day^2
Epoch rev:           19130
Checksum:              317

Satellite: UO-11
Catalog number: 14781
Epoch time:      08325.59969659
Element set:     818
Inclination:      098.1371 deg
RA of node:       001.8256 deg
Eccentricity:    0.0008121
Arg of perigee:   292.7418 deg
Mean anomaly:     067.2962 deg
Mean motion:   14.79676860 rev/day
Decay rate:       -7.8e-07 rev/day^2
Epoch rev:           32698
Checksum:              353

Satellite: RS-15
Catalog number: 23439
Epoch time:      08325.19983016
Element set:     160
Inclination:      064.8173 deg
RA of node:       242.7643 deg
Eccentricity:    0.0145624
Arg of perigee:   092.4790 deg
Mean anomaly:     269.2817 deg
Mean motion:   11.27552685 rev/day
Decay rate:       -3.9e-07 rev/day^2
Epoch rev:           57255
Checksum:              324

Satellite: FO-29
Catalog number: 24278
Epoch time:      08325.90125009
Element set:     908
Inclination:      098.5765 deg
RA of node:       221.6014 deg
Eccentricity:    0.0350700
Arg of perigee:   169.7324 deg
Mean anomaly:     191.1226 deg
Mean motion:   13.52939603 rev/day
Decay rate:       -2.1e-07 rev/day^2
Epoch rev:           60558
Checksum:              300

Satellite: SO-33
Catalog number: 25509
Epoch time:      08324.57317785
Element set:     327
Inclination:      031.4328 deg
RA of node:       157.7555 deg
Eccentricity:    0.0355370
Arg of perigee:   305.7236 deg
Mean anomaly:     051.0817 deg
Mean motion:   14.28231614 rev/day
Decay rate:        3.5e-07 rev/day^2
Epoch rev:           52584
Checksum:              301

Satellite: AO-40
Catalog number: 26609
Epoch time:      08324.79327884
Element set:     155
Inclination:      008.1376 deg
RA of node:       048.1672 deg
Eccentricity:    0.7938590
Arg of perigee:   146.5041 deg
Mean anomaly:     308.2339 deg
Mean motion:   01.25586505 rev/day
Decay rate:      -2.56e-06 rev/day^2
Epoch rev:            3699
Checksum:              334

Satellite: VO-52
Catalog number: 28650
Epoch time:      08325.35758949
Element set:      84
Inclination:      097.7719 deg
RA of node:       027.5274 deg
Eccentricity:    0.0027080
Arg of perigee:   353.8299 deg
Mean anomaly:     006.2567 deg
Mean motion:   14.81524912 rev/day
Decay rate:       4.47e-06 rev/day^2
Epoch rev:           19172
Checksum:              339

Satellite: PO-63
Catalog number: 29712
Epoch time:      08325.84635085
Element set:     986
Inclination:      097.8582 deg
RA of node:       020.9497 deg
Eccentricity:    0.0013243
Arg of perigee:   230.3585 deg
Mean anomaly:     129.6454 deg
Mean motion:   14.80342156 rev/day
Decay rate:       5.69e-06 rev/day^2
Epoch rev:           10064
Checksum:              325

/EX
SB KEPS @ AMSAT  $ORB08325.D
Orbital Elements  08325.MICROS

HR AMSAT ORBITAL ELEMENTS FOR THE MICROSATS
FROM WA5QGD FORT WORTH,TX November 20, 2008
Send Subscribe/unsubscribe to KEPS at 
http://www.amsat.org/mailman/listinfo/keps
BID: ORB08325.D
TO ALL RADIO AMATEURS BT

Satellite: AO-16
Catalog number: 20439
Epoch time:      08324.97850530
Element set:     467
Inclination:      098.2506 deg
RA of node:       297.2386 deg
Eccentricity:    0.0011932
Arg of perigee:   073.2258 deg
Mean anomaly:     287.0237 deg
Mean motion:   14.31808412 rev/day
Decay rate:       -7.0e-08 rev/day^2
Epoch rev:           98321
Checksum:              310

Satellite: LO-19
Catalog number: 20442
Epoch time:      08325.48912018
Element set:     392
Inclination:      098.2186 deg
RA of node:       305.7600 deg
Eccentricity:    0.0012851
Arg of perigee:   070.4315 deg
Mean anomaly:     289.8268 deg
Mean motion:   14.32045636 rev/day
Decay rate:       -7.1e-07 rev/day^2
Epoch rev:           98344
Checksum:              304

Satellite: AO-27
Catalog number: 22825
Epoch time:      08325.52658559
Element set:     111
Inclination:      098.4088 deg
RA of node:       279.8566 deg
Eccentricity:    0.0008803
Arg of perigee:   154.4038 deg
Mean anomaly:     205.7596 deg
Mean motion:   14.29252091 rev/day
Decay rate:        2.8e-07 rev/day^2
Epoch rev:           79010
Checksum:              325

Satellite: IO-26
Catalog number: 22826
Epoch time:      08324.92343278
Element set:     825
Inclination:      098.4003 deg
RA of node:       280.1148 deg
Eccentricity:    0.0009248
Arg of perigee:   152.3845 deg
Mean anomaly:     207.7836 deg
Mean motion:   14.29501850 rev/day
Decay rate:       -1.2e-07 rev/day^2
Epoch rev:           79011
Checksum:              298

